Showing default

GONETS M 13 (M23), 40554

Orbit data source: Space-Track

GONETS M 13 (M23), 40554 is a payload satellite owned by Gonets (CIS) in LEO that was launched on Tue, 31 Mar 2015 UTC via an ROKOT launch vehicle from the Plesetsk Missile And Space Complex (PKMTR). Payload-class satellites include a variety of spacecraft equipped with specific instruments for various scientific and technological missions. These include communications satellites like Starlink; space stations such as the ISS; scientific satellites like the Hubble; Earth observation satellites from companies like Planet Labs, Umbra, and HawkEye 360; GPS; miniature CubeSats for education and research; and military/defense satellites.

Loading next visibility...
Identifier
40554, 2015-020C
Orbit
LEO
Last TLE update
11 hours ago
Origin
Manufacturer
Resehetnev ISS
Mission
Operational Civil Communications
Bus & Motor
STRELA-3M, Unknown motor
Mass
225 kg wet, 225 kg dry
Launch date (UTC)
2015-03-31 (10 years ago)
Launch vehicle
ROKOT
Launch site
Plesetsk Missile And Space Complex (PKMTR)
Object type
Payload
Rocket body
Debris
Shape & HBR
Cyl + 1 Ant, 3.5 m
Radar Cross Section
1.798 m², Large (>1 m²)

Expand to show TLE details & history

TLE from 11 hours ago
0 GONETS M 13 (M23)
1 40554U 15020C   25199.53193535  .00000022  00000-0  91382-4 0  9997
2 40554  82.4822 238.6040 0012706 346.9386  13.1362 12.42895900467254
Epoch: 2025-07-18T12:45Z
TLE epoch observation values (Epoch: 2025-07-18T12:45:59.214Z)
Latitude
-0.00009°
Longitude
110.52522°
Altitude
1,487.308 km
Speed
7.125 km/s
True Right ascension
15h 54m 24s
True Declination
0° 00' 00"
Sunlit
Object was in daylight at epoch
Visualization orbit readout
Latitude
0.8201°
Longitude
-69.85825°
Altitude
1,506.691 km
Speed
7.107 km/s
Apparent Right ascension
02h 29m 52s
Apparent Declination
-19° 09' 16"
Sunlit
Object is in daylight
Visualization observer readout
Local Sidereal Time
12:10:48
Azimuth
294.569° NW
Elevation
-53.68°
Doppler factor
1
Orbital elements
Apogee altitude
1,501.702 km
Perigee altitude
1,481.703 km
Semi-major axis
7,869.84 km
Eccentricity
0.00127
Inclination
82.4822°
RAAN
238.604°
Arg. of periapsis
346.9386°
True anomaly
13.16934°
Mean anomaly
13.1362°
Eccentric anomaly
13.15277°
Mean motion
3.10881 °/min
Orbital period
115.8 mins
BSTAR
0.000091382
Loading maneuver chart data...
Loading SW <> Apogee altitude chart data...
Loading historical data...
Loading historical data...
Loading historical data...
Loading historical data...
Loading historical data...
Loading historical data...
Loading historical data...
|